Regional Weather Roundup
Issued by NWS Northern Indiana

Home | Current Version | Previous Version | Text Only | Print | Product List | Glossary Off
Versions: 1 2 3 4 5 6 7 8 9 10 11 12 13 14 15 16 17 18 19 20 21 22 23 24 25 26 27 28 29 30 31 32 33 34 35 36 37 38 39 40 41 42 43 44 45 46 47 48 49 50

000
ASUS43 KIWX 230110
RWRIWX

KIWX WEATHER ROUNDUP
NATIONAL WEATHER SERVICE NORTHERN INDIANA
800 PM EST THU FEB 22 2018

NOTE: "FAIR" INDICATES FEW OR NO CLOUDS BELOW 12,000 FEET WITH NO
SIGNIFICANT WEATHER AND/OR OBSTRUCTIONS TO VISIBILITY.

* THESE STATIONS ARE NOT UNDER NWS QUALITY CONTROL. THEY ALSO MAY NOT
  REPORT WEATHER SUCH AS PRECIPITATION OR FOG.

INZ001>027-230200-
NORTHERN INDIANA

CITY           SKY/WX    TMP DP  RH WIND       PRES   REMARKS
GARY*          CLOUDY    43  36  75 E15       30.42S
VALPARAISO     CLOUDY    41  35  79 E13       30.42R
MICHIGAN CITY* CLOUDY    39  34  81 E7        30.43S
LAPORTE*       CLOUDY    39  34  84 E12       30.43R
SOUTH BEND     CLOUDY    39  32  76 E10       30.43S
ELKHART*       CLOUDY    39  32  75 E9        30.43R
GOSHEN         CLOUDY    38  33  82 E15       30.42R
MONTICELLO*    CLOUDY    41  38  91 E7        30.39R
LOGANSPORT*    CLOUDY    37  36  93 E9        30.40R
ROCHESTER*     CLOUDY    41  37  87 E13       30.41R
WARSAW*        CLOUDY    37  34  87 MISG      30.41R
AUBURN*        CLOUDY    34  32  93 E16G22    30.44S WCI  23
FORT WAYNE     CLOUDY    36  33  89 E23       30.42F
HUNTINGTON*    CLOUDY    36  34  95 E10G21    30.42R
PERU/GRISSOM   CLOUDY    39  39 100 E12       30.38R
MARION*        CLOUDY    38  36  93 E16       30.38F FOG

$$
INZ028>050-230200-
CENTRAL INDIANA

CITY           SKY/WX    TMP DP  RH WIND       PRES   REMARKS
LAFAYETTE      CLOUDY    45  41  86 SE3       30.38R
KOKOMO*        CLOUDY    39  37  92 E16       30.38R
MUNCIE*        CLOUDY    43  40  89 E13       30.38S FOG
INDIANAPOLIS   CLOUDY    44  42  93 SE9       30.37R

$$
MIZ043>046-050>051-056>058-064>065-071>073-077>080-230200-
SOUTHWEST LOWER MICHIGAN

CITY           SKY/WX    TMP DP  RH WIND       PRES   REMARKS
BATTLE CREEK   FAIR      39  26  59 E12       30.46R
BENTON HARBOR  CLOUDY    40  31  70 E10       30.43F
COLDWATER*     CLOUDY    38  32  80 E13G18    30.44F
HILLSDALE*     CLOUDY    34  32  93 E14G25    30.45F WCI  24
HOLLAND        CLOUDY    38  27  64 E12       30.47F
GRAND RAPIDS   MOCLDY    36  26  67 E12       30.49S
KALAMAZOO      FAIR      40  28  62 E8        30.45S
STURGIS*       CLOUDY    39  34  82 E12       30.42F
THREE RIVERS*  MOCLDY    40  32  74 E12       30.46R

$$
OHZ001>008-015>018-024>025-230200-
NORTHWEST OHIO

CITY           SKY/WX    TMP DP  RH WIND       PRES   REMARKS
WAUSEON*       CLOUDY    34  34 100 E16       30.47F WCI  23
DEFIANCE       CLOUDY    35  30  82 E13       30.45F WCI  26
FINDLAY        CLOUDY    34  30  85 NE17      30.46F WCI  23
TOLEDO EXPRESS CLOUDY    35  30  82 E12       30.49F WCI  27
TOLEDO METCALF CLOUDY    34  30  85 E10       30.52F WCI  26
LIMA           CLOUDY    34  34 100 NE10      30.44S FOG     WCI  26

$$
AND FOR LAKE MICHIGAN COASTAL AND OPEN LAKE BUOY OBSERVATIONS

STATION/POSITION TEMP    WIND        PRES    VSBY  WAVE
                 AIR SEA DIR/SP/G                  HT/PER
                 (F)     (DEG/KT/KT) (MB)    (MI)  (FT/S)
CALUMET HARBOR    35      40/  6/  9 1029.0F
MICHIGAN CITY     41      80/ 10/ 13   N/A
BURNS HARBOR      41     100/ 10/ 13 1030.5S
SAINT JOSEPH      40      70/  3/  6 1031.2

$$
&&



USA.gov is the U.S. government's official web portal to all federal, state and local government web resources and services.